Regional Weather Roundup
Issued by NWS Charleston, SC

Home | Current Version | Previous Version | Text Only | Print | Product List | Glossary On
Versions: 1 2 3 4 5 6 7 8 9 10 11 12 13 14 15 16 17 18 19 20 21 22 23 24 25 26 27 28 29 30 31 32 33 34 35 36 37 38 39 40 41 42 43 44 45 46 47 48 49 50
000
ASUS42 KCHS 201127
RWRCHS

REGIONAL WEATHER ROUNDUP
NATIONAL WEATHER SERVICE CHARLESTON SC
700 AM EDT FRI OCT 20 2017

NOTE: "FAIR" INDICATES FEW OR NO CLOUDS BELOW 12,000 FEET WITH NO
SIGNIFICANT WEATHER AND/OR OBSTRUCTIONS TO VISIBILITY.

NOT ALL STATIONS ARE QUALITY CONTROLLED. USE DATA WITH CAUTION...
ESPECIALLY DEWPOINT OBSERVATIONS.

SCZ027-030-031-034>040-042>050-201200-
...SOUTHEAST SOUTH CAROLINA...

CITY           SKY/WX    TMP DP  RH WIND       PRES   REMARKS
N CHARLESTON   FAIR      56  55  97 N3        30.23R
WATERFRONT PRK   N/A     63  57  81 N7        30.08R
JOHNS ISLAND   FAIR      59  55  88 N6        30.23S
PINOPOLIS        N/A     64  61  88 N7        30.14R
MONCKS CORNER  FAIR      52  50  93 CALM      30.24R FOG
SUMMERVILLE    FAIR      52  50  93 CALM      30.25R
BEAUFORT MCAS  FAIR      58  57  97 CALM      30.23R
BEAUFORT ARPT  FAIR      59  55  88 N5        30.23R
HILTON HEAD IS CLEAR     64  59  82 NE8         N/A
WALTERBORO     FAIR      48  46  93 CALM      30.25R
ALLENDALE        N/A     48  46  93 CALM        N/A

...SOUTHERN MIDLANDS AND PEE DEE...

CITY           SKY/WX    TMP DP  RH WIND       PRES   REMARKS
GEORGETOWN     FAIR      54  54 100 CALM      30.24R
KINGSTREE      FAIR      45  43  93 CALM      30.25R
ORANGEBURG     FAIR      49  46  90 CALM      30.25R
BARNWELL         N/A     45  43  93 CALM      30.26R
AIKEN          FAIR      43  39  87 CALM      30.29S
MANNING        HAZE      46  36  66 MISG      30.25R VSB<1/4
COLUMBIA       FAIR      43  41  93 W3        30.25R
SUMTER         FAIR      48  44  83 CALM      30.22S
FLORENCE       FAIR      47  47 100 CALM      30.24S
MYRTLE BEACH   FAIR      55  53  93 CALM      30.24R
N MYRTLE BEACH FAIR      54  53  97 CALM      30.23R

$$

GAZ063-065-086>088-099>101-113>116-118-119-134>141-150-201200-
...SOUTHEAST GEORGIA...

CITY           SKY/WX    TMP DP  RH WIND       PRES   REMARKS
SAVANNAH ARPT  FAIR      54  53  97 N5        30.23R
HUNTER AAF     FAIR      59  55  87 N6        30.19R
FORT STEWART   FAIR      55  53  92 NW3       30.20R
STATESBORO     FAIR      48  48 100 CALM      30.25R
SYLVANIA       FAIR      49  49 100 CALM      30.26R
CLAXTON        FAIR      47  47  99 CALM      30.25R

...CSRA...CENTRAL AND FAR SOUTHEAST GEORGIA...

CITY           SKY/WX    TMP DP  RH WIND       PRES   REMARKS
THOMSON        FAIR      39  38  94 CALM      30.32S
AUGUSTA-BUSH   FAIR      44  42  93 CALM      30.26R
AUGUSTA-DANIEL FAIR      54  45  71 N6        30.27R
SWAINSBORO     FAIR      50  50 100 CALM      30.26S
VIDALIA        FAIR      52  50  93 CALM      30.25R
EASTMAN        FAIR      45  45 100 CALM      30.28R FOG
HAZLEHURST     FAIR      52  50  92 CALM      30.23R
ALMA           FAIR      55  53  93 CALM      30.22R
WAYCROSS       FAIR      56  53  90 CALM      30.22R
JESUP          FAIR      57  55  94 CALM      30.22R
BAXLEY         FAIR      50  50 100 CALM      30.22S FOG
BRUNSWICK      FAIR      61  55  82 N3        30.21R
SAINT SIMONS   FAIR      64  62  93 N7        30.19R

$$

SCZ027-028-034-036>038-045-046-048>050-GAZ119-141-201200-
...LAKE AND SUPPLEMENTAL COASTAL OBSERVATIONS...

STATION/POSITION TIME  TEMP    WIND        PRES    WAVE   SWELL
                       AIR SEA DIR/SP/G            HT/PER HT/PER/DIR
                 (UTC) (F)     (DEG/KT/KT) (MB)    (FT/S) (FT/S/D)
WINYAH BAY       1030   59     340/  6     1023.0S
LAKE MURRAY      1050   52      CALM  /  2 1024.0R
ACE BASIN NERRS  1045   58     350/  1     1024.0R
FORT PULASKI     1100   64 73  360/  5/  7 1023.4
SAPELO ISLAND    1100   63      20/  8     1023.0

$$

ANZ835-935-AMZ111-154-330-350-352-354-370-450-454-472-201200-
...C-MAN AND BUOY OBSERVATIONS...

STATION/POSITION TIME  TEMP    WIND        PRES    WAVE   SWELL
                       AIR SEA DIR/SP/G            HT/PER HT/PER/DIR
                 (UTC) (F)     (DEG/KT/KT) (MB)    (FT/S) (FT/S/D)
BUOY 41004       1110   75 79   40/ 10/ 16 1022.2
BUOY 41008       1050   74 77   50/ 14/ 16 1021.7R   5/ 9   3/120/ 9
FOLLY BEACH CMAN 1100   64     350/  7/  8 1024.0R
CAPERS NEARSHORE 1108   65 73   20/ 12/ 17 1023.1R
FRIPP NEARSHORE  1108   69      20/ 14/ 17   N/A


STATION/POSITION TIME  TEMP    WIND        PRES    WAVE   SWELL
                       AIR SEA DIR/SP/G            HT/PER HT/PER/DIR
                 (UTC) (F)     (DEG/KT/KT) (MB)    (FT/S) (FT/S/D)
5E ST. MARYS GA  1100      77                N/A     5/ 8
FRYING PAN BUOY  1110   73 76  360/ 10/ 12 1022.7
BUOY 41025       1050   72 81  330/  8/ 12 1022.2R   4/ 9   3/110/ 9
CAPE LOOKOUT NC  1100   66     350/  4/  4 1022.7R
BUOY 41002       1050   77 80   40/ 14/ 17 1020.2R   6/ 9   3/100/ 9
BUOY 41010       NOT AVBL
ST AUGUSTINE FL  1100   78 77   60/ 14/ 16 1021.1R


$$



USA.gov is the U.S. government's official web portal to all federal, state and local government web resources and services.